Theta_e
281 280 280 280 280 280 280 279 278 277 278 277 278 278 278 279 279 279 279 280 280 279 279 279 279 279 279 279 279 279 279 279 279 280 280 280 280 280 280 280 280 280
280 280 280 280 280 280 280 280 279 278 278 278 278 278 278 277 277 278 278 278 278 278 278 278 278 278 278 278 278 278 278 278 278 279 278 278 279 279 279 279 279 280
280 280 280 280 280 280 280 280 280 279 278 279 278 278 278 277 276 276 276 277 277 277 277 277 277 277 277 277 278 277 277 277 277 278 278 277 278 278 278 279 279 279
280 280 280 280 280 280 280 279 279 279 279 278 278 279 278 278 277 276 276 277 276 276 276 276 276 276 276 276 276 276 276 276 276 277 276 277 277 277 277 278 278 278
279 280 280 280 280 280 280 279 279 280 279 279 279 279 278 278 277 277 276 276 276 276 276 276 276 276 276 276 276 275 276 275 276 276 275 275 275 276 276 277 276 276
279 279 279 279 280 280 280 279 280 280 280 280 280 280 278 278 277 277 277 276 276 276 276 276 276 276 276 275 275 275 275 274 274 274 273 273 274 275 275 276 276 275
278 278 278 279 279 279 279 279 279 280 280 280 280 279 279 277 276 276 276 276 276 276 275 275 275 275 275 274 274 273 273 273 273 273 272 273 273 273 274 274 275 275
278 279 279 279 278 278 278 279 279 279 279 278 277 278 277 277 276 276 276 276 275 275 275 275 275 274 274 273 273 272 272 273 272 272 272 272 272 272 272 273 273 272
278 278 278 278 278 278 278 278 278 278 278 277 277 277 276 274 274 274 273 273 274 274 274 274 274 273 273 272 272 272 272 272 272 272 271 271 271 271 272 272 272 272
277 277 276 276 276 277 276 277 277 277 277 276 276 275 276 275 273 273 273 273 273 273 273 273 272 272 272 272 272 272 272 272 272 271 271 271 271 271 271 271 271 271
276 276 275 275 275 276 275 276 276 276 276 276 275 275 275 274 274 271 271 271 272 272 272 272 272 272 272 272 271 272 272 272 271 271 271 271 271 271 271 271 271 270
274 274 274 274 274 274 274 274 275 274 274 274 274 274 274 274 273 273 272 272 272 272 272 272 272 271 271 271 271 271 271 271 271 271 271 271 270 270 270 270 270 270
272 272 273 272 273 273 273 273 273 273 273 273 273 273 273 273 273 273 273 272 272 271 271 271 271 271 271 271 270 270 270 270 270 270 270 270 270 270 270 270 270 270
270 271 271 271 271 271 271 271 272 272 272 272 272 272 272 272 272 272 272 270 271 271 271 271 270 270 270 269 269 269 269 269 269 269 269 269 269 269 269 269 269 269
269 270 270 269 269 269 269 269 270 270 270 270 271 271 272 272 271 271 271 271 271 270 270 270 269 270 270 269 269 268 269 268 269 269 269 269 269 269 269 269 269 269
268 268 268 268 268 268 267 268 268 268 269 268 269 269 270 270 270 271 270 270 270 270 269 269 269 270 271 271 271 269 269 269 268 268 268 268 268 268 268 269 269 269
267 267 267 266 267 266 266 266 266 267 267 268 268 268 268 269 269 269 269 269 269 269 269 269 269 270 271 274 276 276 271 269 269 269 268 268 268 268 268 268 269 269
265 265 265 265 265 264 265 265 265 266 267 268 268 268 268 269 269 269 269 270 270 269 269 269 269 271 274 276 277 278 276 273 271 270 269 269 269 268 268 269 269 269
264 264 263 263 264 264 264 264 265 265 266 266 266 268 268 268 268 269 269 270 270 269 270 270 270 271 274 276 277 277 278 277 275 272 270 270 270 269 269 269 269 269
263 263 262 263 263 264 264 264 264 265 265 266 267 268 268 268 267 267 268 268 269 269 270 270 271 272 273 275 276 277 277 277 276 276 274 272 271 270 270 269 269 269
263 262 262 262 263 264 264 264 264 264 264 265 266 267 267 267 267 266 267 267 268 268 268 269 270 272 272 274 275 276 276 276 274 275 275 275 274 272 271 270 270 270
262 262 262 262 262 263 263 263 264 264 264 265 266 267 268 267 266 267 266 266 267 267 267 267 269 270 271 272 273 274 275 273 273 273 273 273 274 274 273 272 271 271
261 261 261 261 261 261 262 262 263 263 264 266 266 267 266 265 265 266 267 266 266 266 266 267 268 269 270 270 271 273 272 271 271 272 272 272 272 273 273 273 272 271
260 260 259 260 260 259 260 261 262 263 264 266 265 264 263 263 265 265 266 265 265 265 266 266 266 268 268 269 270 272 271 270 270 270 270 271 271 272 272 272 272 270
260 260 259 259 259 259 259 259 260 262 264 266 264 263 263 264 265 264 264 264 265 265 266 266 265 266 267 267 268 270 270 269 269 268 268 269 270 270 271 271 271 270
259 259 258 258 258 258 258 259 261 263 264 263 262 262 263 263 263 263 262 263 264 264 264 264 264 264 265 266 267 268 269 267 267 266 266 267 268 268 268 269 270 269
Wind_Speed
6 5 7 7 7 7 7 7 7 7 7 7 8 8 8 8 7 9 11 11 12 12 12 11 10 10 9 8 9 9 9 10 9 8 10 10 11 12 12 12 12 12
7 6 6 5 5 5 6 7 7 7 8 8 8 7 6 5 7 8 9 11 11 12 11 11 11 11 10 9 9 9 9 9 11 7 9 11 11 9 13 12 11 11
5 5 6 7 8 8 8 7 7 7 7 8 7 7 7 6 7 7 8 9 10 10 11 10 10 10 10 10 10 10 10 10 11 8 9 12 9 10 11 9 10 12
6 7 7 7 7 8 7 6 6 6 6 6 8 8 7 6 7 8 8 9 9 10 10 10 11 10 10 10 10 9 10 10 9 7 10 9 9 9 11 9 10 10
5 6 6 6 6 6 5 5 7 7 7 8 6 6 7 7 8 8 8 9 10 10 9 11 11 11 10 10 10 10 9 9 9 9 10 11 9 9 10 9 11 12
4 4 4 5 5 5 6 6 7 7 7 6 9 7 6 8 7 8 9 10 9 10 10 10 10 11 10 11 10 10 9 9 9 9 11 11 10 9 9 9 11 13
8 6 5 4 4 4 5 6 6 6 6 7 5 5 6 7 7 9 9 9 10 10 10 10 9 9 9 9 9 10 9 10 9 9 11 11 9 11 10 10 12 13
9 7 8 7 6 5 4 5 5 5 5 4 5 6 4 6 7 7 7 8 9 10 10 10 9 9 8 8 10 10 10 8 9 10 11 11 9 11 10 10 10 12
9 10 10 10 9 8 8 7 7 6 6 5 6 6 5 5 6 6 7 7 8 8 8 9 9 9 8 9 10 11 11 10 10 11 12 12 12 13 12 11 11 12
11 10 11 10 10 9 10 9 8 7 6 6 6 5 6 6 4 5 5 6 7 8 8 8 8 8 9 10 11 11 11 12 11 11 12 12 13 13 12 11 13 13
11 10 11 11 11 9 9 9 8 8 7 7 7 7 6 6 5 4 5 5 7 8 9 9 9 9 10 10 10 10 11 11 11 11 12 12 13 13 12 12 13 14
10 10 11 11 11 10 10 10 9 8 7 7 6 7 7 6 6 6 4 6 7 8 8 8 8 8 9 10 10 10 10 10 10 11 11 12 12 12 12 12 13 14
9 9 9 9 9 9 9 9 9 9 9 9 7 6 6 6 6 6 6 5 7 6 7 8 8 8 8 8 8 8 9 10 11 11 11 11 11 12 12 12 13 13
8 7 8 8 8 8 8 8 9 9 10 9 9 9 8 7 7 7 7 5 6 6 7 6 7 7 6 7 7 8 9 10 10 11 11 12 12 12 12 13 13 13
7 7 7 8 7 8 8 9 9 9 9 9 8 9 8 9 8 7 7 7 6 6 6 5 6 7 6 7 7 9 8 10 11 12 12 12 12 13 12 13 12 12
8 8 8 7 7 8 8 8 8 9 8 8 8 8 9 9 9 8 8 7 7 7 5 5 5 5 8 12 11 9 9 9 10 11 11 12 13 13 13 13 13 13
7 7 7 7 7 7 8 9 9 9 8 8 8 9 9 9 8 9 8 8 9 8 8 7 5 5 10 13 17 18 12 10 11 11 11 12 13 13 14 13 12 13
7 7 8 8 8 9 9 8 9 9 9 9 9 10 9 9 9 9 9 8 8 8 8 8 7 8 12 16 18 19 17 12 11 11 11 11 12 13 13 12 12 12
6 8 8 8 9 9 8 9 9 9 10 11 10 9 8 9 10 11 11 10 10 10 9 8 7 9 13 19 19 20 20 17 10 11 12 13 13 13 13 13 12 11
7 8 8 8 9 9 9 9 9 10 10 9 9 9 8 9 9 11 11 10 10 12 11 10 9 9 15 20 20 21 21 18 13 13 12 12 14 14 13 13 13 12
7 7 7 7 8 8 8 8 7 8 8 8 8 8 8 9 9 10 11 11 11 11 10 11 10 16 19 20 20 21 22 18 12 12 12 12 11 12 13 13 13 13
8 8 7 7 8 8 8 9 8 8 9 9 8 8 7 7 7 7 9 10 10 11 11 12 11 17 19 20 21 21 22 13 11 12 12 12 13 11 10 11 12 13
8 7 7 7 8 9 9 9 9 9 8 8 8 8 8 10 9 9 8 8 11 11 12 12 10 14 19 21 21 22 18 11 12 11 11 12 12 12 11 10 11 12
7 6 7 7 7 8 8 9 8 8 8 8 8 9 9 9 9 9 9 8 10 11 10 11 10 13 19 19 21 21 18 13 11 11 12 12 11 11 10 11 11 15
7 7 7 8 8 9 8 9 9 9 9 7 7 7 8 8 8 8 8 8 8 10 15 13 10 12 17 19 20 20 16 11 11 10 11 10 10 11 11 10 11 9
6 6 7 7 8 8 8 8 8 8 8 8 8 7 7 7 7 7 9 8 8 9 9 10 10 9 11 19 19 20 20 13 10 11 11 12 11 11 12 10 9 8
Wind_Direction
208 200 209 210 219 217 217 215 216 218 221 220 220 224 219 217 196 198 204 206 210 212 213 215 214 216 217 215 216 222 225 227 229 225 226 228 232 230 230 228 225 227
217 210 213 217 230 227 228 220 223 216 227 223 226 228 225 206 201 197 201 207 211 215 214 215 216 217 216 217 217 221 228 226 231 221 229 230 234 231 236 234 233 235
224 219 215 215 221 225 226 224 222 226 226 229 229 227 226 208 207 202 206 206 210 215 214 215 215 215 215 217 216 220 225 225 230 221 227 234 232 233 236 233 235 234
232 226 223 227 227 231 229 224 231 231 231 234 230 227 220 215 207 207 209 208 213 215 216 214 215 216 215 216 216 224 225 227 229 221 231 236 232 234 238 232 235 236
253 243 236 238 239 238 235 227 235 233 228 233 238 229 220 217 212 211 209 212 213 218 214 215 215 217 212 216 214 224 224 228 226 222 230 234 231 228 235 230 236 237
293 285 282 268 258 253 243 238 241 241 242 242 238 228 221 219 213 212 212 213 213 217 217 215 215 215 211 214 214 222 220 224 224 217 230 233 234 230 232 229 235 238
359 348 320 300 293 275 266 263 262 258 252 247 257 240 225 221 217 215 215 215 217 216 216 216 213 214 210 211 215 220 221 223 225 220 228 234 231 236 232 231 234 238
12 12 7 0 350 333 310 299 290 284 278 288 265 260 242 236 230 226 221 220 220 222 221 220 218 216 210 208 215 219 223 219 222 223 229 234 229 237 232 233 235 239
15 14 9 11 10 6 356 342 330 317 312 301 286 278 270 250 245 238 231 227 229 229 225 224 220 218 212 211 217 218 222 222 221 222 226 230 229 233 231 229 235 237
15 9 11 10 8 0 357 350 343 336 330 322 306 302 295 281 264 258 247 238 238 237 231 228 222 220 217 216 218 217 222 224 223 224 227 229 231 233 230 227 231 236
12 8 6 3 1 356 353 349 346 342 340 334 330 322 309 303 294 273 265 255 246 240 237 232 226 221 222 223 222 220 223 225 225 226 228 230 231 232 230 228 231 232
11 7 5 0 355 352 349 346 343 344 341 336 335 328 320 315 303 293 266 262 255 253 247 245 239 231 228 227 224 223 226 229 230 230 231 231 233 232 230 228 231 233
8 5 2 356 353 349 345 345 345 342 342 339 335 328 323 316 313 303 289 273 270 265 261 254 251 242 238 236 232 228 227 230 232 233 235 234 234 232 230 230 231 234
2 356 359 351 348 347 345 346 343 343 341 336 335 334 331 326 317 310 299 289 279 270 267 265 260 259 250 244 239 233 229 232 232 234 237 237 238 235 233 232 232 232
356 359 352 348 346 345 347 347 343 339 337 336 334 332 330 326 322 316 311 306 295 282 277 271 265 259 252 243 242 241 233 236 235 235 236 239 239 240 237 236 236 235
356 354 349 341 345 346 346 342 338 337 337 335 336 334 331 325 324 323 318 312 308 304 295 283 271 265 258 252 242 239 239 238 241 239 238 240 242 244 244 239 237 237
352 350 344 345 346 344 343 343 341 338 335 334 339 336 331 330 327 323 321 319 317 313 311 302 286 271 263 262 261 251 239 241 240 242 238 239 242 243 247 244 240 237
351 346 346 346 346 346 343 341 339 336 337 339 339 338 337 332 329 327 325 320 314 311 306 303 299 290 282 283 279 276 267 249 240 242 242 242 241 244 247 248 246 242
350 350 345 345 345 342 340 341 339 338 339 340 335 331 328 335 337 332 329 326 319 313 308 303 299 293 294 297 295 291 285 278 261 241 241 245 244 244 245 245 246 246
352 347 346 341 340 338 340 338 335 337 334 328 323 321 330 331 330 328 325 324 322 320 316 315 309 307 303 303 300 297 293 288 279 274 259 244 244 243 244 245 241 244
350 341 340 335 334 333 332 328 326 326 324 319 317 319 328 327 328 328 323 321 322 319 316 312 312 314 311 308 305 301 297 294 287 283 279 272 256 242 243 245 243 240
344 337 332 334 332 334 331 329 328 324 321 317 320 315 316 323 321 314 314 315 315 316 312 312 311 315 315 313 310 307 302 298 291 285 282 277 274 267 248 243 244 242
335 328 327 328 329 328 326 323 321 318 313 314 313 321 333 326 318 313 311 316 317 315 309 306 310 318 320 316 313 310 307 301 296 289 283 279 276 276 271 257 246 239
321 321 319 321 321 319 315 313 312 307 306 309 323 329 323 314 312 315 316 316 313 309 309 311 314 320 319 318 316 313 311 306 301 294 287 285 284 279 275 270 259 243
325 324 322 319 317 312 310 307 306 304 301 309 322 312 302 303 310 310 309 311 311 309 314 315 312 317 318 319 319 316 315 309 305 299 294 290 287 281 276 273 272 259
315 312 306 305 300 298 296 291 289 295 302 316 308 298 300 305 306 304 305 306 308 310 310 314 314 313 317 318 319 318 316 314 306 301 296 296 294 291 293 290 287 276